COSMOS 1275 DEB, 39936

Orbit data source: Space-Track

COSMOS 1275 DEB, 39936 is space debris in LEO originally from a launch on Thu, 04 Jun 1981 UTC launched from the Plesetsk Missile And Space Complex (PKMTR). Debris objects in space refer to the collection of defunct objects orbiting the Earth. Examples of debris include non-operational satellites, rocket bodies, and fragments generated from explosions, collisions, or faulty payload assembly.

Loading next visibility...
Identifier
39936, 1981-053MW
Orbit
LEO
Country
Flag of CISCIS
Related business
Manufacturer
Unknown
Mission
Spacecraft
Bus & Motor
Unknown
Mass
Unknown
Launch date (UTC)
1981-06-04 (44 years ago)
Launch vehicle
Unknown
Launch site
Plesetsk Missile And Space Complex (PKMTR)
Object type
Payload
Rocket body
Debris
Shape & HBR
Unknown shape, 0.1 m
Radar Cross Section
Small (<0.1 m²)

Expand to show TLE details & history
Last TLE update: 2 days ago

TLE from 2 days ago
0 COSMOS 1275 DEB
1 39936U 81053MW  25287.98065056  .00001878  00000-0  14786-2 0  9992
2 39936  83.1507  20.7054 0061622 171.4032 188.8205 13.90380841564575
Epoch: 2025-10-14T23:32Z
TLE epoch observation values (Epoch: 2025-10-14T23:32:08.208Z)
Latitude
0.00001°
Longitude
3.90991°
Altitude
974.724 km
Speed
7.342 km/s
True Right ascension
01h 22m 49s
True Declination
0° 00' 00"
Sunlit
Object was in full shadow at epoch
Visualization orbit readout
Latitude
Unknown
Longitude
Unknown
Altitude
Unknown
Speed
Unknown
Apparent Right ascension
Unknown
Apparent Declination
Unknown
Sunlit
N/A
Visualization observer readout
Local Sidereal Time
07:41:34
Azimuth
Unknown
Elevation
Unknown
Doppler factor
Unknown
Orbital elements
Apogee altitude
969.416 km
Perigee altitude
879.416 km
Semi-major axis
7,302.553 km
Eccentricity
0.00616
Inclination
83.1507°
RAAN
20.7054°
Arg. of periapsis
171.4032°
True anomaly
188.71304°
Mean anomaly
188.8205°
Eccentric anomaly
188.76669°
Mean motion
3.47801 °/min
Orbital period
103.51 mins
BSTAR
0.0014786
Loading maneuver chart data...
Computing Atmospheric mass density...
Loading historical data...
Loading historical data...
Loading historical data...
Loading historical data...
Loading historical data...
Loading historical data...
Loading historical data...

Documentation

Showing up to 5 results
|